SCP
0 0 0 0 0 -0 -0 0 -0 0 0 -0 0 0 0 0 0 0 0 0 0 0 0 0 0 0 0 0 0 0 0 0 0 0 0 0 0 0 0 0 0 0 0 0
0 0 0 0 0 0 0 0 0 -0 0 0 0 0 0 0 0 0 0 0 0 0 0 0 0 0 0 0 0 0 0 0 0 0 0 0 0 0 0 0 0 0 0 0
0 0 0 0 0 0 0 0 0 0 0 0 0 0 0 0 0 0 0 0 0 0 0 0 0 0 0 0 0 0 0 0 0 0 0 0 0 0 0 0 0 0 0 0
0 0 0 0 0 0 0 0 0 0 0 0 0 0 0 0 0 0 0 0 0 0 0 0 0 0 0 0 0 0 0 0 0 0 0 0 0 0 0 0 0 0 0 0
0 0 0 0 0 0 0 0 0 0 0 0 0 0 0 0 0 0 0 0 0 0 0 0 0 0 0 0 0 0 0 0 0 0 0 0 0 0 0 0 0 0 0 0
0 0 0 0 0 0 0 0 0 0 0 0 0 0 0 0 0 0 0 0 0 0 0 0 0 0 0 0 0 0 0 0 0 0 0 0 0 0 0 0 0 0 0 0
0 0 0 0 0 0 0 0 0 0 0 0 0 0 0 0 0 0 0 0 0 0 0 0 0 0 0 0 0 0 0 0 0 0 0 0 0 0 0 0 0 0 0 0
0 0 0 0 0 0 0 0 0 0 0 0 0 0 0 0 0 0 0 0 0 0 0 0 0 0 0 0 0 0 0 0 0 0 0 0 0 0 0 0 0 0 0 0
0 0 0 0 0 0 0 0 0 0 0 0 0 0 0 0 0 0 0 0 0 0 0 0 0 0 0 0 0 0 0 0 0 0 0 0 0 0 0 0 0 0 0 0
0 0 0 0 0 0 0 0 0 0 0 0 0 0 0 0 0 0 0 0 0 0 0 0 0 0 0 0 0 0 0 0 0 0 0 0 0 0 0 0 0 0 0 0
0 0 0 0 0 0 0 0 0 0 0 0 0 0 0 0 0 0 0 0 0 0 0 0 0 0 0 0 0 0 0 -0 0 0 0 0 0 0 0 0 0 0 0 0
0 0 0 0 0 0 0 0 0 0 0 0 0 0 0 0 0 0 0 0 0 0 0 0 0 0 0 0 0 0 0 0 0 0 0 0 0 0 0 0 0 0 0 0
0 0 0 0 0 0 0 0 0 0 0 0 0 0 0 0 0 0 0 0 0 0 0 0 0 0 0 0 0 0 0 0 0 0 0 0 0 0 0 0 0 0 0 0
0 0 0 0 0 0 0 0 0 0 0 0 0 0 0 0 0 0 0 0 0 0 0 0 0 0 0 0 0 0 0 0 0 0 0 0 0 0 0 0 0 0 0 0
0 0 0 0 0 0 0 0 0 0 0 0 0 0 0 0 0 0 0 0 0 0 0 0 0 0 0 0 0 0 0 0 0 0 0 0 0 0 0 0 0 0 0 0
0 0 0 0 0 0 0 0 0 0 0 0 0 0 0 0 0 0 0 0 0 0 0 0 0 0 0 0 0 0 0 0 0 0 0 0 0 0 0 0 0 0 0 0
0 0 0 0 0 0 0 0 0 0 0 0 0 0 0 0 0 0 0 0 0 0 0 0 0 0 0 0 0 0 0 0 0 0 0 0 0 0 0 0 0 0 0 0
0 0 0 0 0 0 0 0 0 0 0 0 0 0 0 0 0 0 0 0 0 0 0 0 0 0 0 0 0 0 0 0 0 0 0 0 0 0 0 0 0 0 0 0
0 0 0 0 0 0 0 0 0 0 0 0 0 0 0 0 0 0 0 0 0 0 0 0 0 0 0 0 0 0 0 0 0 0 0 0 0 0 0 0 0 0 0 0
0 0 0 0 0 0 0 0 0 0 0 0 0 0 0 0 0 0 0 0 0 0 0 0 0 0 0 0 0 0 0 0 0 0 0 0 0 0 0 0 0 0 0 0
0 0 0 0 0 0 0 0 0 0 0 0 0 0 0 0 0 0 0 0 0 0 0 0 0 0 0 0 0 0 0 0 0 0 0 0 0 0 0 0 0 0 0 0
0 0 0 0 0 0 0 0 0 0 0 0 0 0 0 0 0 0 0 0 0 0 0 0 0 0 0 0 0 0 0 0 0 0 0 0 0 0 0 0 0 0 0 0
0 0 0 0 0 0 0 0 0 0 0 0 0 0 0 0 0 0 0 0 0 0 0 0 0 0 0 0 0 0 0 0 0 0 0 0 0 0 0 0 0 0 0 0
0 0 0 0 0 0 0 0 0 0 0 0 0 0 0 0 0 0 0 0 0 0 0 0 0 0 0 0 0 0 0 0 0 0 0 0 0 0 0 0 0 0 0 0
0 0 0 0 0 0 0 0 0 0 0 0 0 0 0 0 0 0 0 0 0 0 0 0 0 0 0 0 0 0 0 0 0 0 0 0 0 0 0 0 0 0 0 0
0 0 0 0 0 0 0 0 0 0 0 0 0 0 0 0 0 0 0 0 0 0 0 0 0 0 0 0 0 0 0 0 0 0 0 0 0 0 0 0 0 0 0 0
0 0 0 0 0 0 0 0 0 0 0 0 0 0 0 0 0 0 0 0 0 0 0 0 0 0 0 0 0 0 0 0 0 0 0 0 0 0 0 0 0 0 0 0
Wind_Speed_500mb
28 31 5 24 15 23 27 21 21 19 28 23 18 10 6 6 22 20 29 45 48 50 50 51 51 52 53 54 51 49 42 35 31 30 27 27 23 30 31 30 33 25 28 31
7 20 27 25 29 25 28 25 25 28 26 19 23 21 19 14 15 12 25 33 29 34 36 44 45 53 54 54 51 50 41 39 30 24 21 20 30 40 34 33 29 29 30 31
4 10 14 10 16 30 30 29 21 21 19 15 5 2 15 14 19 14 23 27 27 27 36 39 47 52 55 55 50 46 41 36 28 25 20 38 31 30 29 33 36 36 33 33
2 2 2 18 3 11 11 18 22 24 18 13 28 24 16 23 21 22 12 16 20 25 34 42 44 46 52 48 48 40 36 29 27 22 24 23 30 32 35 35 37 38 37 36
5 8 14 21 4 3 2 7 21 19 21 27 23 20 17 29 17 15 14 13 20 25 31 35 40 44 49 49 41 34 32 25 22 18 19 35 31 31 35 40 40 39 38 39
5 4 8 2 8 5 2 5 17 20 18 17 16 5 8 24 20 21 24 30 29 28 28 33 35 38 39 37 27 30 20 19 12 26 29 31 36 35 37 39 38 37 38 38
6 3 11 4 9 3 5 6 13 12 17 19 10 15 29 28 27 24 28 31 30 20 17 20 24 31 24 27 28 24 18 18 20 19 36 33 37 38 41 39 37 36 47 43
3 3 11 11 9 5 10 7 18 17 16 18 21 23 28 28 31 20 19 27 12 7 8 13 19 27 34 26 20 21 16 12 17 32 31 32 40 42 34 34 28 34 37 41
14 7 10 13 7 6 4 8 13 14 16 21 23 26 25 28 30 13 14 7 5 10 17 21 23 22 28 24 13 6 11 18 34 37 40 36 38 40 26 22 23 28 34 39
3 7 14 20 9 14 3 6 11 17 21 18 20 20 26 26 12 8 15 17 18 14 12 13 15 13 10 10 5 7 24 34 36 37 33 34 32 36 25 23 23 35 37 38
12 19 17 1 20 18 11 13 11 14 18 19 18 19 17 14 24 25 21 22 20 13 7 7 4 6 3 2 12 27 33 33 33 30 30 29 28 34 45 35 36 30 32 37
6 17 7 16 18 14 16 19 18 15 18 25 23 22 12 28 23 12 7 2 4 0 7 5 4 5 8 20 26 29 31 31 30 31 34 35 31 30 37 50 43 35 43 51
6 10 7 16 25 24 27 23 24 26 22 18 20 13 12 9 7 9 10 10 4 5 4 3 11 18 28 30 31 31 32 31 33 33 34 35 34 42 54 54 48 42 39 42
10 7 18 16 20 24 26 25 19 23 20 23 26 27 26 22 17 12 12 9 6 8 15 21 25 30 32 30 31 36 38 38 38 37 38 38 42 45 48 54 61 58 51 52
15 22 28 27 27 24 20 21 26 30 28 27 24 23 20 15 12 9 9 12 17 24 25 24 28 34 36 35 44 46 45 47 46 48 50 51 48 49 49 46 51 61 59 51
19 21 21 25 26 26 27 27 30 28 25 20 16 9 7 7 7 11 15 21 29 29 29 33 37 38 38 38 41 46 50 54 59 58 55 56 57 57 62 55 57 55 58 61
25 25 25 25 27 27 28 26 25 20 14 9 8 11 13 13 12 13 18 21 26 29 33 35 32 30 36 40 42 46 51 57 61 64 67 69 69 73 74 61 61 60 56 57
29 31 30 31 31 28 23 16 12 8 8 10 12 13 15 17 20 22 24 28 32 33 27 23 35 48 52 52 53 58 62 63 64 67 68 73 78 71 71 67 66 65 66 59
36 38 34 27 21 19 13 12 13 13 13 14 13 16 18 20 24 29 34 37 38 33 32 45 54 59 66 67 66 63 64 66 66 69 76 73 75 78 77 68 56 60 61 59
36 30 27 24 19 15 14 15 13 9 12 12 14 18 26 31 34 38 40 36 29 36 45 55 63 70 71 65 62 66 68 70 70 74 79 71 69 81 89 63 58 55 59 56
28 25 23 19 17 14 12 11 8 8 10 14 20 26 29 31 34 35 37 38 33 43 57 66 67 60 63 68 74 75 69 71 73 74 72 69 69 70 65 67 47 48 43 43
24 22 19 15 12 10 9 7 5 6 12 19 25 29 34 37 38 37 31 32 50 58 58 55 53 61 67 66 54 54 59 58 54 54 58 62 67 69 49 29 25 26 21 20
22 20 15 10 6 6 4 3 7 12 18 25 33 38 39 38 36 39 37 43 48 52 50 44 54 54 56 54 50 48 45 50 49 40 31 22 10 9 10 10 19 22 24 29
19 16 10 8 7 6 2 8 12 20 24 22 28 36 38 36 33 27 37 39 43 49 45 44 53 53 52 49 48 47 47 48 46 41 36 32 28 23 19 19 21 18 22 27
15 9 10 12 10 5 2 8 6 15 23 24 28 28 30 29 34 39 36 39 42 42 42 42 47 53 50 46 45 45 44 46 47 45 41 37 34 30 29 29 28 28 28 29
17 12 11 12 7 2 8 14 16 19 24 24 27 22 28 33 37 38 35 36 41 42 42 40 41 44 47 46 43 42 44 42 46 46 44 41 38 38 37 36 35 33 32 31
20 17 10 4 5 11 17 19 21 22 21 30 32 18 26 34 37 38 37 35 38 39 39 39 37 39 46 42 41 40 41 42 40 46 45 43 41 40 38 37 35 35 32 31
Wind_Direction_500mb
270 262 258 298 265 232 235 228 234 250 259 280 355 354 73 51 196 249 272 219 222 218 208 203 208 215 216 216 219 218 219 218 223 234 233 254 274 269 283 279 297 301 299 295
306 292 289 270 277 270 276 264 253 266 265 296 50 22 18 336 304 267 277 288 244 230 223 212 213 216 215 218 219 220 219 221 224 224 243 245 285 270 278 288 293 287 290 289
242 24 348 325 244 254 266 267 259 258 273 308 306 5 19 336 313 267 275 282 277 250 237 232 226 222 217 216 221 219 216 223 233 235 231 303 295 281 279 280 280 283 288 284
120 320 302 248 14 320 289 286 279 282 292 1 55 40 348 311 290 306 280 286 277 258 244 239 232 227 217 216 219 214 217 222 228 247 307 294 278 282 285 285 284 283 284 286
145 216 278 314 205 329 319 340 27 28 24 36 41 9 12 29 23 351 351 313 289 277 254 241 232 226 219 209 212 214 214 227 269 309 277 283 284 283 284 285 284 280 280 282
163 238 223 115 67 9 353 199 57 38 29 358 351 4 22 13 9 343 315 308 302 288 267 247 234 219 207 198 196 204 231 296 240 279 304 286 279 286 282 280 281 284 284 270
155 239 296 74 115 329 236 69 54 10 352 352 339 351 338 331 317 314 323 320 305 297 274 239 219 212 201 191 192 213 220 229 259 311 275 285 284 281 279 282 284 279 280 274
117 150 267 142 122 131 62 355 1 347 341 334 316 310 307 311 316 323 331 331 351 213 195 164 178 189 181 187 199 195 200 274 301 273 276 282 282 296 298 291 287 281 268 275
177 204 148 182 27 15 325 314 320 319 318 325 326 326 325 322 322 326 358 2 123 154 153 148 156 165 166 163 141 22 2 280 270 274 281 289 297 307 300 309 288 272 270 278
46 229 206 213 235 292 317 322 345 337 323 340 335 342 328 333 23 51 100 101 101 126 136 122 135 138 102 78 38 298 277 280 282 288 296 304 309 314 306 274 278 277 269 267
216 256 284 41 56 58 34 355 352 9 15 28 14 355 6 51 82 86 115 120 131 128 131 123 73 293 215 337 272 268 280 291 295 301 304 302 298 287 296 291 266 266 264 268
212 72 16 31 53 46 62 56 47 52 60 53 58 68 119 104 100 108 77 26 295 168 164 196 290 11 273 270 294 299 298 299 300 305 306 308 308 301 289 305 305 272 268 267
32 27 50 80 77 82 86 79 77 77 80 72 69 96 85 69 64 29 58 76 49 345 28 320 270 280 310 306 300 296 295 298 301 301 306 306 292 288 297 301 299 294 286 278
38 344 114 74 100 98 98 92 96 89 77 70 69 66 67 74 75 58 44 45 20 317 296 307 313 314 319 313 304 300 299 299 299 303 305 296 290 292 289 293 297 298 293 281
81 81 102 110 108 101 104 98 87 79 79 81 78 75 64 62 55 35 2 327 310 319 322 321 311 313 313 299 291 294 294 295 295 291 291 292 292 291 297 296 286 288 291 286
114 108 110 110 107 105 100 94 94 93 87 86 91 82 44 16 351 340 334 301 311 323 321 315 315 317 313 310 301 291 288 285 287 291 289 286 286 291 297 297 298 295 292 287
135 131 121 114 115 111 104 105 111 108 95 68 28 354 347 348 353 342 340 338 335 336 333 326 324 320 320 319 314 304 296 290 286 285 282 288 287 289 290 287 294 288 293 290
113 119 124 124 119 123 117 111 111 88 49 32 28 28 25 18 10 357 347 340 337 338 344 332 318 315 313 314 313 308 304 301 296 290 290 287 286 286 291 281 284 284 288 287
113 113 114 117 123 128 124 100 88 78 67 56 45 34 21 5 349 341 334 332 336 336 318 309 310 312 311 311 310 303 294 292 298 298 296 288 284 281 280 281 278 285 289 286
113 117 130 126 124 117 108 105 102 89 76 54 31 6 355 350 346 344 343 349 348 327 310 308 312 315 318 318 316 312 309 306 302 294 281 292 289 286 269 270 276 284 286 281
128 125 121 118 116 115 114 114 108 86 51 14 359 354 350 346 342 345 339 344 317 307 307 311 320 316 314 314 315 316 315 311 309 306 297 299 296 290 284 282 278 285 275 277
138 135 132 130 124 118 107 101 81 26 359 346 341 339 340 340 339 332 336 318 309 312 322 332 319 320 323 324 326 319 320 320 320 318 306 297 298 290 257 255 288 285 256 253
151 152 151 150 137 112 87 14 342 342 343 341 335 336 340 340 334 337 330 322 320 324 333 330 328 333 333 335 338 337 327 325 332 333 341 348 359 0 6 300 261 268 273 283
164 158 157 145 132 122 41 348 356 335 336 345 329 329 334 338 332 321 314 321 326 331 337 333 331 336 337 339 341 344 343 343 345 342 335 330 333 339 340 324 319 306 302 301
154 145 129 106 100 68 9 337 7 320 326 335 325 333 333 330 322 322 329 330 332 334 335 335 334 332 337 340 341 341 343 341 342 343 342 341 342 337 330 325 326 321 313 306
128 160 163 167 171 240 318 331 335 326 328 323 324 334 327 320 321 325 329 330 327 329 331 333 330 331 333 338 339 338 338 338 337 339 340 340 337 333 332 331 330 327 323 316
152 127 117 103 328 328 332 331 327 332 329 314 323 340 318 315 320 321 323 331 330 331 330 333 334 333 329 338 337 338 337 338 340 337 341 340 337 337 335 336 335 333 333 328
Wind_Speed_850mb
28 31 5 24 15 23 27 21 21 19 28 23 18 10 6 6 22 20 29 45 48 50 50 51 51 52 53 54 51 49 42 35 31 30 27 27 23 30 31 30 33 25 28 31
7 20 27 25 29 25 28 25 25 28 26 19 23 21 19 14 15 12 25 33 29 34 36 44 45 53 54 54 51 50 41 39 30 24 21 20 30 40 34 33 29 29 30 31
4 10 14 10 16 30 30 29 21 21 19 15 5 2 15 14 19 14 23 27 27 27 36 39 47 52 55 55 50 46 41 36 28 25 20 38 31 30 29 33 36 36 33 33
2 2 2 18 3 11 11 18 22 24 18 13 28 24 16 23 21 22 12 16 20 25 34 42 44 46 52 48 48 40 36 29 27 22 24 23 30 32 35 35 37 38 37 36
5 8 14 21 4 3 2 7 21 19 21 27 23 20 17 29 17 15 14 13 20 25 31 35 40 44 49 49 41 34 32 25 22 18 19 35 31 31 35 40 40 39 38 39
5 4 8 2 8 5 2 5 17 20 18 17 16 5 8 24 20 21 24 30 29 28 28 33 35 38 39 37 27 30 20 19 12 26 29 31 36 35 37 39 38 37 38 38
6 3 11 4 9 3 5 6 13 12 17 19 10 15 29 28 27 24 28 31 30 20 17 20 24 31 24 27 28 24 18 18 20 19 36 33 37 38 41 39 37 36 47 43
3 3 11 11 9 5 10 7 18 17 16 18 21 23 28 28 31 20 19 27 12 7 8 13 19 27 34 26 20 21 16 12 17 32 31 32 40 42 34 34 28 34 37 41
14 7 10 13 7 6 4 8 13 14 16 21 23 26 25 28 30 13 14 7 5 10 17 21 23 22 28 24 13 6 11 18 34 37 40 36 38 40 26 22 23 28 34 39
3 7 14 20 9 14 3 6 11 17 21 18 20 20 26 26 12 8 15 17 18 14 12 13 15 13 10 10 5 7 24 34 36 37 33 34 32 36 25 23 23 35 37 38
12 19 17 1 20 18 11 13 11 14 18 19 18 19 17 14 24 25 21 22 20 13 7 7 4 6 3 2 12 27 33 33 33 30 30 29 28 34 45 35 36 30 32 37
6 17 7 16 18 14 16 19 18 15 18 25 23 22 12 28 23 12 7 2 4 0 7 5 4 5 8 20 26 29 31 31 30 31 34 35 31 30 37 50 43 35 43 51
6 10 7 16 25 24 27 23 24 26 22 18 20 13 12 9 7 9 10 10 4 5 4 3 11 18 28 30 31 31 32 31 33 33 34 35 34 42 54 54 48 42 39 42
10 7 18 16 20 24 26 25 19 23 20 23 26 27 26 22 17 12 12 9 6 8 15 21 25 30 32 30 31 36 38 38 38 37 38 38 42 45 48 54 61 58 51 52
15 22 28 27 27 24 20 21 26 30 28 27 24 23 20 15 12 9 9 12 17 24 25 24 28 34 36 35 44 46 45 47 46 48 50 51 48 49 49 46 51 61 59 51
19 21 21 25 26 26 27 27 30 28 25 20 16 9 7 7 7 11 15 21 29 29 29 33 37 38 38 38 41 46 50 54 59 58 55 56 57 57 62 55 57 55 58 61
25 25 25 25 27 27 28 26 25 20 14 9 8 11 13 13 12 13 18 21 26 29 33 35 32 30 36 40 42 46 51 57 61 64 67 69 69 73 74 61 61 60 56 57
29 31 30 31 31 28 23 16 12 8 8 10 12 13 15 17 20 22 24 28 32 33 27 23 35 48 52 52 53 58 62 63 64 67 68 73 78 71 71 67 66 65 66 59
36 38 34 27 21 19 13 12 13 13 13 14 13 16 18 20 24 29 34 37 38 33 32 45 54 59 66 67 66 63 64 66 66 69 76 73 75 78 77 68 56 60 61 59
36 30 27 24 19 15 14 15 13 9 12 12 14 18 26 31 34 38 40 36 29 36 45 55 63 70 71 65 62 66 68 70 70 74 79 71 69 81 89 63 58 55 59 56
28 25 23 19 17 14 12 11 8 8 10 14 20 26 29 31 34 35 37 38 33 43 57 66 67 60 63 68 74 75 69 71 73 74 72 69 69 70 65 67 47 48 43 43
24 22 19 15 12 10 9 7 5 6 12 19 25 29 34 37 38 37 31 32 50 58 58 55 53 61 67 66 54 54 59 58 54 54 58 62 67 69 49 29 25 26 21 20
22 20 15 10 6 6 4 3 7 12 18 25 33 38 39 38 36 39 37 43 48 52 50 44 54 54 56 54 50 48 45 50 49 40 31 22 10 9 10 10 19 22 24 29
19 16 10 8 7 6 2 8 12 20 24 22 28 36 38 36 33 27 37 39 43 49 45 44 53 53 52 49 48 47 47 48 46 41 36 32 28 23 19 19 21 18 22 27
15 9 10 12 10 5 2 8 6 15 23 24 28 28 30 29 34 39 36 39 42 42 42 42 47 53 50 46 45 45 44 46 47 45 41 37 34 30 29 29 28 28 28 29
17 12 11 12 7 2 8 14 16 19 24 24 27 22 28 33 37 38 35 36 41 42 42 40 41 44 47 46 43 42 44 42 46 46 44 41 38 38 37 36 35 33 32 31
20 17 10 4 5 11 17 19 21 22 21 30 32 18 26 34 37 38 37 35 38 39 39 39 37 39 46 42 41 40 41 42 40 46 45 43 41 40 38 37 35 35 32 31
Wind_Direction_850mb
270 262 258 298 265 232 235 228 234 250 259 280 355 354 73 51 196 249 272 219 222 218 208 203 208 215 216 216 219 218 219 218 223 234 233 254 274 269 283 279 297 301 299 295
306 292 289 270 277 270 276 264 253 266 265 296 50 22 18 336 304 267 277 288 244 230 223 212 213 216 215 218 219 220 219 221 224 224 243 245 285 270 278 288 293 287 290 289
242 24 348 325 244 254 266 267 259 258 273 308 306 5 19 336 313 267 275 282 277 250 237 232 226 222 217 216 221 219 216 223 233 235 231 303 295 281 279 280 280 283 288 284
120 320 302 248 14 320 289 286 279 282 292 1 55 40 348 311 290 306 280 286 277 258 244 239 232 227 217 216 219 214 217 222 228 247 307 294 278 282 285 285 284 283 284 286
145 216 278 314 205 329 319 340 27 28 24 36 41 9 12 29 23 351 351 313 289 277 254 241 232 226 219 209 212 214 214 227 269 309 277 283 284 283 284 285 284 280 280 282
163 238 223 115 67 9 353 199 57 38 29 358 351 4 22 13 9 343 315 308 302 288 267 247 234 219 207 198 196 204 231 296 240 279 304 286 279 286 282 280 281 284 284 270
155 239 296 74 115 329 236 69 54 10 352 352 339 351 338 331 317 314 323 320 305 297 274 239 219 212 201 191 192 213 220 229 259 311 275 285 284 281 279 282 284 279 280 274
117 150 267 142 122 131 62 355 1 347 341 334 316 310 307 311 316 323 331 331 351 213 195 164 178 189 181 187 199 195 200 274 301 273 276 282 282 296 298 291 287 281 268 275
177 204 148 182 27 15 325 314 320 319 318 325 326 326 325 322 322 326 358 2 123 154 153 148 156 165 166 163 141 22 2 280 270 274 281 289 297 307 300 309 288 272 270 278
46 229 206 213 235 292 317 322 345 337 323 340 335 342 328 333 23 51 100 101 101 126 136 122 135 138 102 78 38 298 277 280 282 288 296 304 309 314 306 274 278 277 269 267
216 256 284 41 56 58 34 355 352 9 15 28 14 355 6 51 82 86 115 120 131 128 131 123 73 293 215 337 272 268 280 291 295 301 304 302 298 287 296 291 266 266 264 268
212 72 16 31 53 46 62 56 47 52 60 53 58 68 119 104 100 108 77 26 295 168 164 196 290 11 273 270 294 299 298 299 300 305 306 308 308 301 289 305 305 272 268 267
32 27 50 80 77 82 86 79 77 77 80 72 69 96 85 69 64 29 58 76 49 345 28 320 270 280 310 306 300 296 295 298 301 301 306 306 292 288 297 301 299 294 286 278
38 344 114 74 100 98 98 92 96 89 77 70 69 66 67 74 75 58 44 45 20 317 296 307 313 314 319 313 304 300 299 299 299 303 305 296 290 292 289 293 297 298 293 281
81 81 102 110 108 101 104 98 87 79 79 81 78 75 64 62 55 35 2 327 310 319 322 321 311 313 313 299 291 294 294 295 295 291 291 292 292 291 297 296 286 288 291 286
114 108 110 110 107 105 100 94 94 93 87 86 91 82 44 16 351 340 334 301 311 323 321 315 315 317 313 310 301 291 288 285 287 291 289 286 286 291 297 297 298 295 292 287
135 131 121 114 115 111 104 105 111 108 95 68 28 354 347 348 353 342 340 338 335 336 333 326 324 320 320 319 314 304 296 290 286 285 282 288 287 289 290 287 294 288 293 290
113 119 124 124 119 123 117 111 111 88 49 32 28 28 25 18 10 357 347 340 337 338 344 332 318 315 313 314 313 308 304 301 296 290 290 287 286 286 291 281 284 284 288 287
113 113 114 117 123 128 124 100 88 78 67 56 45 34 21 5 349 341 334 332 336 336 318 309 310 312 311 311 310 303 294 292 298 298 296 288 284 281 280 281 278 285 289 286
113 117 130 126 124 117 108 105 102 89 76 54 31 6 355 350 346 344 343 349 348 327 310 308 312 315 318 318 316 312 309 306 302 294 281 292 289 286 269 270 276 284 286 281
128 125 121 118 116 115 114 114 108 86 51 14 359 354 350 346 342 345 339 344 317 307 307 311 320 316 314 314 315 316 315 311 309 306 297 299 296 290 284 282 278 285 275 277
138 135 132 130 124 118 107 101 81 26 359 346 341 339 340 340 339 332 336 318 309 312 322 332 319 320 323 324 326 319 320 320 320 318 306 297 298 290 257 255 288 285 256 253
151 152 151 150 137 112 87 14 342 342 343 341 335 336 340 340 334 337 330 322 320 324 333 330 328 333 333 335 338 337 327 325 332 333 341 348 359 0 6 300 261 268 273 283
164 158 157 145 132 122 41 348 356 335 336 345 329 329 334 338 332 321 314 321 326 331 337 333 331 336 337 339 341 344 343 343 345 342 335 330 333 339 340 324 319 306 302 301
154 145 129 106 100 68 9 337 7 320 326 335 325 333 333 330 322 322 329 330 332 334 335 335 334 332 337 340 341 341 343 341 342 343 342 341 342 337 330 325 326 321 313 306
128 160 163 167 171 240 318 331 335 326 328 323 324 334 327 320 321 325 329 330 327 329 331 333 330 331 333 338 339 338 338 338 337 339 340 340 337 333 332 331 330 327 323 316
152 127 117 103 328 328 332 331 327 332 329 314 323 340 318 315 320 321 323 331 330 331 330 333 334 333 329 338 337 338 337 338 340 337 341 340 337 337 335 336 335 333 333 328